This is the latest recevied weather packets stored in our database for station/object KA1AL. If no packets are shown the sender has not sent any weather packets the latest 10 day(s).
| Time | Temp. | Humidity | Pressure | Rain* | Wind** | Luminosity | Snow |
|---|---|---|---|---|---|---|---|
| 1777410296 | 16.67° C | 45% | 1019.6 hPa | 0 mm | - | 295 W/m² | - |
| 1777409991 | 16.67° C | 45% | 1019.6 hPa | 0 mm | - | 317 W/m² | - |
| 1777409686 | 17.22° C | 44% | 1019.4 hPa | 0 mm | - | 315 W/m² | - |
| 1777409383 | 17.22° C | 45% | 1019.5 hPa | 0 mm | - | 348 W/m² | - |
| 1777409078 | 17.22° C | 44% | 1019.4 hPa | 0 mm | - | 360 W/m² | - |
| 1777408775 | 16.67° C | 46% | 1019.5 hPa | 0 mm | - | 367 W/m² | - |
| 1777408471 | 17.22° C | 43% | 1019.6 hPa | 0 mm | - | 366 W/m² | - |
| 1777408166 | 16.67° C | 47% | 1019.8 hPa | 0 mm | - | 374 W/m² | - |
| 1777407862 | 17.22° C | 44% | 1019.5 hPa | 0 mm | - | 384 W/m² | - |
| 1777407560 | 16.67° C | 43% | 1019.7 hPa | 0 mm | - | 419 W/m² | - |
| 1777407259 | 17.22° C | 43% | 1019.9 hPa | 0 mm | - | 439 W/m² | - |
| 1777406958 | 17.22° C | 42% | 1019.5 hPa | 0 mm | - | 458 W/m² | - |
| 1777406653 | 17.22° C | 44% | 1019.8 hPa | 0 mm | - | 470 W/m² | - |
| 1777406349 | 17.78° C | 43% | 1019.7 hPa | 0 mm | - | 483 W/m² | - |
| 1777406049 | 17.22° C | 44% | 1019.7 hPa | 0 mm | - | 495 W/m² | - |
| 1777405746 | 17.22° C | 46% | 1019.7 hPa | 0 mm | - | 509 W/m² | - |
| 1777405442 | 17.78° C | 46% | 1019.9 hPa | 0 mm | - | 519 W/m² | - |
| 1777405139 | 17.22° C | 44% | 1019.7 hPa | 0 mm | - | 529 W/m² | - |
| 1777404838 | 17.22° C | 43% | 1019.8 hPa | 0 mm | - | 532 W/m² | - |
| 1777404534 | 17.22° C | 44% | 1019.9 hPa | 0 mm | - | 537 W/m² | - |
| 1777404230 | 16.67° C | 44% | 1020 hPa | 0 mm | - | 549 W/m² | - |
| 1777403927 | 16.67° C | 45% | 1019.9 hPa | 0 mm | - | 557 W/m² | - |
| 1777403626 | 17.22° C | 43% | 1020.3 hPa | 0 mm | - | 565 W/m² | - |
| 1777403321 | 17.22° C | 41% | 1020.5 hPa | 0 mm | - | 579 W/m² | - |
| 1777403016 | 16.67° C | 42% | 1020.6 hPa | 0 mm | - | 550 W/m² | - |
* Rain latest hour (hover to see other rain measurements)
** Current wind speed in m/s (hover to see current wind gust speed)